THOR ABLESTAR DEB, 329

Orbit data source: Space-Track

THOR ABLESTAR DEB, 329 is space debris in LEO originally from a launch on Thu, 29 Jun 1961 UTC launched from the Air Force Eastern Test Range (AFETR). Debris objects in space refer to the collection of defunct objects orbiting the Earth. Examples of debris include non-operational satellites, rocket bodies, and fragments generated from explosions, collisions, or faulty payload assembly.

Loading next visibility...
Identifier
329, 1961-015DF
Orbit
LEO
Country
Flag of USUS
Related business
Manufacturer
Unknown
Mission
Spacecraft
Bus & Motor
Unknown
Mass
Unknown
Launch date (UTC)
1961-06-29 (65 years ago)
Launch vehicle
Unknown
Launch site
Air Force Eastern Test Range (AFETR)
Object type
Payload
Rocket body
Debris
Shape & HBR
Unknown shape, 0.1 m
Radar Cross Section
Small (<0.1 m²)

Expand to show TLE details & history
Last TLE update: 1 day ago

TLE from 1 day ago
0 THOR ABLESTAR DEB
1 00329U 61015DF  26118.11430483  .00000138  00000-0  24407-3 0  9991
2 00329  66.7784 131.8290 0111926  25.0628  35.0582 13.66111945223176
Epoch: 2026-04-28T02:44Z
TLE epoch observation values (Epoch: 2026-04-28T02:44:35.937Z)
Latitude
53.50778°
Longitude
-90.17809°
Altitude
954.062 km
Speed
7.414 km/s
True Right ascension
11h 08m 15s
True Declination
53° 20' 51"
Sunlit
Object was in daylight at epoch
Visualization orbit readout
Latitude
Unknown
Longitude
Unknown
Altitude
Unknown
Speed
Unknown
Apparent Right ascension
Unknown
Apparent Declination
Unknown
Sunlit
N/A
Visualization observer readout
Local Sidereal Time
10:28:52
Azimuth
Unknown
Elevation
Unknown
Doppler factor
Unknown
Orbital elements
Apogee altitude
1,094.692 km
Perigee altitude
929.263 km
Semi-major axis
7,390.115 km
Eccentricity
0.01119
Inclination
66.7784°
RAAN
131.829°
Arg. of periapsis
25.0628°
True anomaly
35.80343°
Mean anomaly
35.0582°
Eccentric anomaly
35.42996°
Mean motion
3.41638 °/min
Orbital period
105.37 mins
BSTAR
0.00024407
Loading maneuver chart data...
Computing Atmospheric mass density...
Loading historical data...
Loading historical data...
Loading historical data...
Loading historical data...
Loading historical data...
Loading historical data...
Loading historical data...

Documentation

Showing up to 5 results
|